Weather History for Huntsville, AL

Change the Weather History Date:

Monday, July 29, 2013

  Actual Average Record
Temperature  
Mean Temperature 75 °F 81 °F  
Max Temperature 85 °F 91 °F 111 °F (1930)
Min Temperature 65 °F 70 °F 58 °F (1944)
Degree Days  
Heating Degree Days 0 0  
Month to date heating degree days 0 0  
Since 1 June heating degree days 0 1  
Since 1 July heating degree days 0 0  
Cooling Degree Days 10 16  
Month to date cooling degree days 394 456  
Year to date cooling degree days 1051 1099  
Since 1 June cooling degree days 818 836  
Growing Degree Days 25 (Base 50)    
Moisture  
Dew Point 59 °F    
Average Humidity 58    
Maximum Humidity 81    
Minimum Humidity 34    
Precipitation  
Precipitation 0.00 in 0.11 in 1.26 in (1981)
Month to date precipitation 9.22 3.81  
Year to date precipitation 40.55 32.47  
Snow  
Snow 0.00 in - - ()
Month to date snowfall 0.0  
Since 1 June snowfall 0.0  
Since 1 July snowfall 0.0  
Snow Depth 0.00 in    
Sea Level Pressure  
Sea Level Pressure 30.13 in    
Wind  
Wind Speed 3 mph (NE)    
Max Wind Speed 8 mph    
Max Gust Speed 10 mph    
Visibility 10 miles    
Events      
T = Trace of Precipitation, MM = Missing Value Source: NWS Daily Summary

Daily Weather History Graph

Daily Weather History Graph

Search for Another Location

Airport:

Trip Planner

Search our weather history database for the weather conditions in past years. The results will help you decide how hot, cold, wet, or windy it might be!

Date:

Astronomy

Jul. 29, 2013 Rise Set
Actual Time 5:55 AM CDT 7:51 PM CDT
Civil Twilight 5:27 AM CDT 8:19 PM CDT
Nautical Twilight 4:53 AM CDT 8:52 PM CDT
Astronomical Twilight 4:17 AM CDT 9:28 PM CDT
Moon No Moon Rise 1:15 PM CDT (7/29)
Length of Visible Light 14h 51m
Length of Day
13h 56m
Waning Gibbous, 50% of the Moon is Illuminated
Jul 29
Waning Gibbous
Jul 29
Last Quarter
Aug 6
New
Aug 14
First Quarter
Aug 20
Full

Hourly Weather History & Observations

Time (CDT) Temp. Heat Index Dew Point Humidity Pressure Visibility Wind Dir Wind Speed Gust Speed Precip Events Conditions
12:53 AM 70.0 °F - 60.1 °F 71% 30.07 in 10.0 mi NE 3.5 mph - N/A   Clear
1:53 AM 69.1 °F - 61.0 °F 75% 30.07 in 10.0 mi North 4.6 mph - N/A   Clear
2:53 AM 68.0 °F - 62.1 °F 81% 30.07 in 10.0 mi Calm Calm - N/A   Clear
3:53 AM 66.9 °F - 60.1 °F 79% 30.07 in 10.0 mi ENE 6.9 mph - N/A   Clear
4:53 AM 68.0 °F - 62.1 °F 81% 30.07 in 10.0 mi Calm Calm - N/A   Clear
5:53 AM 66.0 °F - 61.0 °F 84% 30.10 in 10.0 mi North 3.5 mph - N/A   Mostly Cloudy
6:53 AM 70.0 °F - 61.0 °F 73% 30.12 in 10.0 mi Calm Calm - N/A   Mostly Cloudy
7:53 AM 72.0 °F - 59.0 °F 64% 30.14 in 10.0 mi Calm Calm - N/A   Mostly Cloudy
8:53 AM 75.0 °F - 57.9 °F 55% 30.15 in 10.0 mi East 3.5 mph - N/A   Mostly Cloudy
9:53 AM 77.0 °F - 57.9 °F 52% 30.17 in 10.0 mi Calm Calm - N/A   Mostly Cloudy
10:53 AM 77.0 °F - 59.0 °F 54% 30.17 in 10.0 mi North 3.5 mph - N/A   Mostly Cloudy
11:53 AM 78.1 °F - 57.0 °F 48% 30.17 in 10.0 mi NE 3.5 mph - N/A   Mostly Cloudy
12:53 PM 80.1 °F 79.9 °F 53.1 °F 39% 30.16 in 10.0 mi NE 5.8 mph - N/A   Mostly Cloudy
1:53 PM 80.1 °F 80.4 °F 57.0 °F 45% 30.16 in 10.0 mi Calm Calm - N/A   Mostly Cloudy
2:53 PM 82.9 °F 82.4 °F 57.0 °F 41% 30.15 in 10.0 mi NE 5.8 mph - N/A   Mostly Cloudy
3:53 PM 84.9 °F 83.3 °F 54.0 °F 34% 30.14 in 10.0 mi North 5.8 mph - N/A   Partly Cloudy
4:53 PM 84.0 °F 83.0 °F 55.9 °F 38% 30.14 in 10.0 mi Variable 4.6 mph - N/A   Scattered Clouds
5:53 PM 82.9 °F 82.1 °F 55.9 °F 39% 30.13 in 10.0 mi NE 8.1 mph - N/A   Scattered Clouds
6:53 PM 79.0 °F - 57.0 °F 47% 30.14 in 10.0 mi NNE 4.6 mph - N/A   Scattered Clouds
7:53 PM 75.9 °F - 59.0 °F 56% 30.14 in 10.0 mi NNE 4.6 mph - N/A   Scattered Clouds
8:53 PM 73.0 °F - 59.0 °F 61% 30.15 in 10.0 mi ENE 3.5 mph - N/A   Partly Cloudy
9:53 PM 69.1 °F - 61.0 °F 75% 30.17 in 10.0 mi Calm Calm - N/A   Clear
10:53 PM 69.1 °F - 61.0 °F 75% 30.17 in 10.0 mi Calm Calm - N/A   Clear
11:53 PM 68.0 °F - 60.1 °F 76% 30.17 in 10.0 mi NE 3.5 mph - N/A   Clear